Time,TemperatureF,DewpointF,PressureIn,WindDirection,WindDirectionDegrees,WindSpeedMPH,WindSpeedGustMPH,Humidity,HourlyPrecipIn,Conditions,Clouds,dailyrainin,SoftwareType,DateUTC
2013-01-24 00:00:00,14.5,6.6,30.24,North,350,10.1,15.2,69,0.00,,,0.00,WSDL version 423,2013-01-24 06:00:00,
2013-01-24 00:05:00,14.4,8.2,30.24,North,9,9.0,15.2,75,0.00,,,0.00,WSDL version 423,2013-01-24 06:05:00,
2013-01-24 00:10:00,14.3,8.3,30.24,NNE,23,12.6,16.6,71,0.00,,,0.00,WSDL version 423,2013-01-24 06:10:00,
2013-01-24 00:16:00,13.9,4.9,30.24,NNE,15,12.6,17.4,63,0.00,,,0.00,WSDL version 423,2013-01-24 06:16:00,
2013-01-24 00:21:00,13.8,4.6,30.30,NNE,16,8.8,17.4,63,0.00,,,0.00,WSDL version 423,2013-01-24 06:21:00,
2013-01-24 00:26:00,13.7,4.6,30.30,North,8,12.0,15.4,63,0.00,,,0.00,WSDL version 423,2013-01-24 06:26:00,
2013-01-24 00:31:00,13.6,4.4,30.30,NNE,19,11.7,15.4,63,0.00,,,0.00,WSDL version 423,2013-01-24 06:31:00,
2013-01-24 00:36:00,13.4,4.2,30.30,North,360,11.5,15.4,63,0.00,,,0.00,WSDL version 423,2013-01-24 06:36:00,
2013-01-24 00:41:00,13.1,3.9,30.30,NNE,15,12.0,16.3,63,0.00,,,0.00,WSDL version 423,2013-01-24 06:41:00,
2013-01-24 00:46:00,12.8,3.7,30.30,North,3,9.7,16.8,63,0.00,,,0.00,WSDL version 423,2013-01-24 06:46:00,
2013-01-24 00:51:00,12.4,3.3,30.30,North,10,8.8,16.8,63,0.00,,,0.00,WSDL version 423,2013-01-24 06:51:00,
2013-01-24 00:56:00,12.1,3.0,30.30,NNE,19,10.3,13.4,63,0.00,,,0.00,WSDL version 423,2013-01-24 06:56:00,
2013-01-24 01:01:00,11.8,2.7,30.30,NNE,16,10.4,13.4,63,0.00,,,0.00,WSDL version 423,2013-01-24 07:01:00,
2013-01-24 01:07:00,11.5,2.4,30.33,North,360,9.7,17.2,63,0.00,,,0.00,WSDL version 423,2013-01-24 07:07:00,
2013-01-24 01:12:00,11.2,2.1,30.33,NNE,16,10.3,17.2,63,0.00,,,0.00,WSDL version 423,2013-01-24 07:12:00,
2013-01-24 01:17:00,11.0,1.9,30.33,North,6,9.6,15.2,63,0.00,,,0.00,WSDL version 423,2013-01-24 07:17:00,
2013-01-24 01:23:00,10.9,1.8,30.33,North,5,7.4,12.8,63,0.00,,,0.00,WSDL version 423,2013-01-24 07:23:00,
2013-01-24 01:28:00,10.6,1.6,30.33,NNE,14,6.9,12.5,63,0.00,,,0.00,WSDL version 423,2013-01-24 07:28:00,
2013-01-24 01:34:00,10.4,1.4,30.33,North,3,8.0,11.0,63,0.00,,,0.00,WSDL version 423,2013-01-24 07:34:00,
2013-01-24 01:39:00,10.3,1.3,30.33,North,356,8.9,11.0,63,0.00,,,0.00,WSDL version 423,2013-01-24 07:39:00,
2013-01-24 01:45:00,10.2,1.1,30.33,North,3,7.5,14.5,63,0.00,,,0.00,WSDL version 423,2013-01-24 07:45:00,
2013-01-24 01:50:00,10.0,1.0,30.33,North,11,7.7,14.5,63,0.00,,,0.00,WSDL version 423,2013-01-24 07:50:00,
2013-01-24 01:55:00,9.9,0.9,30.33,North,3,10.4,13.2,63,0.00,,,0.00,WSDL version 423,2013-01-24 07:55:00,
2013-01-24 02:01:00,9.7,0.7,30.33,NNE,14,8.5,13.2,63,0.00,,,0.00,WSDL version 423,2013-01-24 08:01:00,
2013-01-24 02:06:00,9.7,0.7,30.36,North,5,7.1,13.0,63,0.00,,,0.00,WSDL version 423,2013-01-24 08:06:00,
2013-01-24 02:11:00,9.6,0.6,30.36,North,352,8.9,12.1,63,0.00,,,0.00,WSDL version 423,2013-01-24 08:11:00,
2013-01-24 02:16:00,9.5,0.5,30.36,North,357,6.6,11.4,63,0.00,,,0.00,WSDL version 423,2013-01-24 08:16:00,
2013-01-24 02:21:00,9.5,0.5,30.36,North,351,5.0,11.4,63,0.00,,,0.00,WSDL version 423,2013-01-24 08:21:00,
2013-01-24 02:27:00,9.3,0.3,30.36,North,10,8.2,10.7,63,0.00,,,0.00,WSDL version 423,2013-01-24 08:27:00,
2013-01-24 02:33:00,9.3,0.3,30.36,NNE,13,5.5,10.7,63,0.00,,,0.00,WSDL version 423,2013-01-24 08:33:00,
2013-01-24 02:38:00,9.2,0.2,30.36,NNE,23,5.4,10.7,63,0.00,,,0.00,WSDL version 423,2013-01-24 08:38:00,
2013-01-24 02:43:00,9.1,0.1,30.36,NNE,23,6.5,12.1,63,0.00,,,0.00,WSDL version 423,2013-01-24 08:43:00,
2013-01-24 02:49:00,9.1,0.1,30.36,North,11,7.8,12.1,63,0.00,,,0.00,WSDL version 423,2013-01-24 08:49:00,
2013-01-24 02:54:00,9.0,0.0,30.36,North,3,5.6,9.8,63,0.00,,,0.00,WSDL version 423,2013-01-24 08:54:00,
2013-01-24 03:00:00,8.8,-0.2,30.36,North,11,7.0,10.1,63,0.00,,,0.00,WSDL version 423,2013-01-24 09:00:00,
2013-01-24 03:05:00,8.8,-0.2,30.36,North,3,7.0,13.0,63,0.00,,,0.00,WSDL version 423,2013-01-24 09:05:00,
2013-01-24 03:10:00,8.6,-0.4,30.36,North,5,5.4,13.0,63,0.00,,,0.00,WSDL version 423,2013-01-24 09:10:00,
2013-01-24 03:16:00,8.5,-0.4,30.36,North,354,6.0,10.5,63,0.00,,,0.00,WSDL version 423,2013-01-24 09:16:00,
2013-01-24 03:22:00,8.4,-0.6,30.36,NNW,347,6.3,9.2,63,0.00,,,0.00,WSDL version 423,2013-01-24 09:22:00,
2013-01-24 03:27:00,8.4,-0.6,30.36,NNE,14,5.9,10.5,63,0.00,,,0.00,WSDL version 423,2013-01-24 09:27:00,
2013-01-24 03:32:00,8.2,-0.7,30.39,North,6,6.3,10.5,63,0.00,,,0.00,WSDL version 423,2013-01-24 09:32:00,
2013-01-24 03:38:00,8.1,-0.9,30.39,NNE,23,5.0,10.5,63,0.00,,,0.00,WSDL version 423,2013-01-24 09:38:00,
2013-01-24 03:44:00,8.1,-0.9,30.39,NNE,14,5.4,8.7,63,0.00,,,0.00,WSDL version 423,2013-01-24 09:44:00,
2013-01-24 03:49:00,8.1,-0.9,30.39,NNE,16,4.7,8.1,63,0.00,,,0.00,WSDL version 423,2013-01-24 09:49:00,
2013-01-24 03:54:00,7.9,-1.0,30.39,North,10,6.0,8.7,63,0.00,,,0.00,WSDL version 423,2013-01-24 09:54:00,
2013-01-24 03:59:00,7.9,-1.1,30.39,North,357,6.2,10.1,63,0.00,,,0.00,WSDL version 423,2013-01-24 09:59:00,
2013-01-24 04:04:00,7.8,-1.1,30.39,NNE,20,6.5,10.1,63,0.00,,,0.00,WSDL version 423,2013-01-24 10:04:00,
2013-01-24 04:10:00,7.7,-1.2,30.39,NNE,19,6.5,9.8,63,0.00,,,0.00,WSDL version 423,2013-01-24 10:10:00,
2013-01-24 04:16:00,7.6,-1.4,30.39,North,5,6.8,10.1,63,0.00,,,0.00,WSDL version 423,2013-01-24 10:16:00,
2013-01-24 04:21:00,7.5,-1.4,30.39,North,11,6.5,10.1,63,0.00,,,0.00,WSDL version 423,2013-01-24 10:21:00,
2013-01-24 04:26:00,7.5,-1.4,30.39,North,5,4.5,8.5,63,0.00,,,0.00,WSDL version 423,2013-01-24 10:26:00,
2013-01-24 04:31:00,7.4,-1.6,30.39,North,6,4.3,7.8,63,0.00,,,0.00,WSDL version 423,2013-01-24 10:31:00,
2013-01-24 04:36:00,7.2,-1.7,30.42,North,352,4.8,8.1,63,0.00,,,0.00,WSDL version 423,2013-01-24 10:36:00,
2013-01-24 04:41:00,7.2,-1.8,30.42,North,6,6.1,8.1,63,0.00,,,0.00,WSDL version 423,2013-01-24 10:41:00,
2013-01-24 04:47:00,7.0,-1.9,30.45,NNE,23,4.7,8.1,63,0.00,,,0.00,WSDL version 423,2013-01-24 10:47:00,
2013-01-24 04:52:00,7.0,-1.9,30.45,North,10,4.2,7.2,63,0.00,,,0.00,WSDL version 423,2013-01-24 10:52:00,
2013-01-24 04:57:00,7.0,-1.9,30.45,North,360,6.0,8.9,63,0.00,,,0.00,WSDL version 423,2013-01-24 10:57:00,
2013-01-24 05:02:00,6.8,-2.1,30.42,North,6,5.9,8.9,63,0.00,,,0.00,WSDL version 423,2013-01-24 11:02:00,
2013-01-24 05:07:00,6.8,-2.1,30.42,North,360,5.8,8.7,63,0.00,,,0.00,WSDL version 423,2013-01-24 11:07:00,
2013-01-24 05:12:00,6.8,-2.1,30.42,North,360,4.4,8.5,63,0.00,,,0.00,WSDL version 423,2013-01-24 11:12:00,
2013-01-24 05:18:00,6.7,-2.2,30.42,North,352,3.9,7.6,63,0.00,,,0.00,WSDL version 423,2013-01-24 11:18:00,
2013-01-24 05:23:00,6.6,-2.3,30.42,NNE,17,2.7,7.6,63,0.00,,,0.00,WSDL version 423,2013-01-24 11:23:00,
2013-01-24 05:28:00,6.5,-2.4,30.42,NNE,23,3.8,6.9,63,0.00,,,0.00,WSDL version 423,2013-01-24 11:28:00,
2013-01-24 05:33:00,6.5,-2.4,30.42,North,353,2.3,6.9,63,0.00,,,0.00,WSDL version 423,2013-01-24 11:33:00,
2013-01-24 05:39:00,6.6,-2.3,30.42,North,354,2.6,6.3,63,0.00,,,0.00,WSDL version 423,2013-01-24 11:39:00,
2013-01-24 05:44:00,6.6,-2.3,30.42,North,11,1.5,6.3,63,0.00,,,0.00,WSDL version 423,2013-01-24 11:44:00,
2013-01-24 05:49:00,6.6,-2.3,30.45,North,3,2.6,6.9,63,0.00,,,0.00,WSDL version 423,2013-01-24 11:49:00,
2013-01-24 05:54:00,6.6,-2.3,30.45,North,9,3.0,6.9,63,0.00,,,0.00,WSDL version 423,2013-01-24 11:54:00,
2013-01-24 05:59:00,6.4,-2.5,30.45,North,8,4.0,9.2,63,0.00,,,0.00,WSDL version 423,2013-01-24 11:59:00,
2013-01-24 06:04:00,6.4,-2.5,30.45,North,8,4.0,9.2,63,0.00,,,0.00,WSDL version 423,2013-01-24 12:04:00,
2013-01-24 06:09:00,6.3,-2.6,30.45,NNE,15,5.5,8.7,63,0.00,,,0.00,WSDL version 423,2013-01-24 12:09:00,
2013-01-24 06:14:00,6.3,-2.6,30.45,North,3,4.8,8.7,63,0.00,,,0.00,WSDL version 423,2013-01-24 12:14:00,
2013-01-24 06:19:00,6.3,-2.6,30.45,North,6,5.1,7.2,63,0.00,,,0.00,WSDL version 423,2013-01-24 12:19:00,
2013-01-24 06:24:00,6.3,-2.6,30.45,North,360,3.4,7.6,63,0.00,,,0.00,WSDL version 423,2013-01-24 12:24:00,
2013-01-24 06:29:00,6.3,-2.6,30.45,NNE,20,3.8,7.6,63,0.00,,,0.00,WSDL version 423,2013-01-24 12:29:00,
2013-01-24 06:34:00,6.3,-2.6,30.45,North,11,3.0,6.7,63,0.00,,,0.00,WSDL version 423,2013-01-24 12:34:00,
2013-01-24 06:39:00,6.3,-2.6,30.45,NNE,16,0.3,6.0,63,0.00,,,0.00,WSDL version 423,2013-01-24 12:39:00,
2013-01-24 06:44:00,6.1,-2.8,30.45,NNE,23,1.8,5.6,63,0.00,,,0.00,WSDL version 423,2013-01-24 12:44:00,
2013-01-24 06:50:00,6.1,-2.8,30.45,North,11,0.8,5.6,63,0.00,,,0.00,WSDL version 423,2013-01-24 12:50:00,
2013-01-24 06:55:00,6.1,-2.8,30.45,NNE,29,4.0,7.4,63,0.00,,,0.00,WSDL version 423,2013-01-24 12:55:00,
2013-01-24 07:00:00,6.1,-2.8,30.45,NNE,13,2.3,7.4,63,0.00,,,0.00,WSDL version 423,2013-01-24 13:00:00,
2013-01-24 07:05:00,6.1,-2.8,30.45,NNE,20,4.9,7.8,63,0.00,,,0.00,WSDL version 423,2013-01-24 13:05:00,
2013-01-24 07:10:00,6.1,-2.8,30.45,NE,51,3.0,7.8,63,0.00,,,0.00,WSDL version 423,2013-01-24 13:10:00,
2013-01-24 07:15:00,6.1,-2.8,30.45,North,11,2.2,6.3,63,0.00,,,0.00,WSDL version 423,2013-01-24 13:15:00,
2013-01-24 07:20:00,6.1,-2.8,30.45,NNE,13,3.1,6.3,63,0.00,,,0.00,WSDL version 423,2013-01-24 13:20:00,
2013-01-24 07:25:00,6.2,-2.7,30.45,NNE,31,0.8,5.4,63,0.00,,,0.00,WSDL version 423,2013-01-24 13:25:00,
2013-01-24 07:30:00,6.3,-2.6,30.45,North,8,0.4,3.8,63,0.00,,,0.00,WSDL version 423,2013-01-24 13:30:00,
2013-01-24 07:35:00,6.3,-2.6,30.45,NNW,341,0.0,3.8,63,0.00,,,0.00,WSDL version 423,2013-01-24 13:35:00,
2013-01-24 07:40:00,6.4,-2.5,30.45,North,10,4.2,6.5,63,0.00,,,0.00,WSDL version 423,2013-01-24 13:40:00,
2013-01-24 07:45:00,6.4,-2.5,30.45,NNE,17,2.2,6.5,63,0.00,,,0.00,WSDL version 423,2013-01-24 13:45:00,
2013-01-24 07:50:00,6.4,-2.5,30.45,North,11,1.7,6.9,63,0.00,,,0.00,WSDL version 423,2013-01-24 13:50:00,
2013-01-24 07:55:00,6.4,-2.5,30.45,North,10,5.2,7.6,63,0.00,,,0.00,WSDL version 423,2013-01-24 13:55:00,
2013-01-24 08:00:00,6.5,-2.4,30.45,NNE,28,2.4,7.6,63,0.00,,,0.00,WSDL version 423,2013-01-24 14:00:00,
2013-01-24 08:05:00,6.9,-2.1,30.45,NNE,31,0.6,4.9,63,0.00,,,0.00,WSDL version 423,2013-01-24 14:05:00,
2013-01-24 08:10:00,7.0,-1.9,30.45,NNE,32,2.5,4.3,63,0.00,,,0.00,WSDL version 423,2013-01-24 14:10:00,
2013-01-24 08:15:00,7.1,-1.8,30.45,North,10,1.4,6.5,63,0.00,,,0.00,WSDL version 423,2013-01-24 14:15:00,
2013-01-24 08:20:00,7.2,-1.7,30.47,NE,42,4.8,8.1,63,0.00,,,0.00,WSDL version 423,2013-01-24 14:20:00,
2013-01-24 08:25:00,7.3,-1.6,30.47,NNE,16,4.8,8.1,63,0.00,,,0.00,WSDL version 423,2013-01-24 14:25:00,
2013-01-24 08:30:00,7.5,-1.4,30.47,NNE,23,3.9,8.1,63,0.00,,,0.00,WSDL version 423,2013-01-24 14:30:00,
2013-01-24 08:35:00,7.7,-1.2,30.47,NNE,18,3.3,7.4,63,0.00,,,0.00,WSDL version 423,2013-01-24 14:35:00,
2013-01-24 08:40:00,8.1,-0.8,30.47,NNE,26,2.7,6.0,63,0.00,,,0.00,WSDL version 423,2013-01-24 14:40:00,
2013-01-24 08:45:00,8.6,-0.4,30.47,NE,37,2.4,6.3,63,0.00,,,0.00,WSDL version 423,2013-01-24 14:45:00,
2013-01-24 08:50:00,8.8,-0.2,30.47,NNE,29,4.9,7.8,63,0.00,,,0.00,WSDL version 423,2013-01-24 14:50:00,
2013-01-24 08:55:00,9.1,0.1,30.47,NNE,31,5.6,10.1,63,0.00,,,0.00,WSDL version 423,2013-01-24 14:55:00,
2013-01-24 09:00:00,9.1,0.1,30.47,NNE,18,5.8,10.1,63,0.00,,,0.00,WSDL version 423,2013-01-24 15:00:00,
2013-01-24 09:05:00,9.3,0.3,30.47,NE,34,4.8,8.5,63,0.00,,,0.00,WSDL version 423,2013-01-24 15:05:00,
2013-01-24 09:10:00,9.6,0.6,30.47,NNE,30,4.7,8.1,63,0.00,,,0.00,WSDL version 423,2013-01-24 15:10:00,
2013-01-24 09:15:00,9.9,0.8,30.47,NNE,25,5.7,8.5,63,0.00,,,0.00,WSDL version 423,2013-01-24 15:15:00,
2013-01-24 09:20:00,10.0,1.0,30.50,NE,42,4.2,8.5,63,0.00,,,0.00,WSDL version 423,2013-01-24 15:20:00,
2013-01-24 09:25:00,10.3,1.3,30.50,NE,35,3.4,7.6,63,0.00,,,0.00,WSDL version 423,2013-01-24 15:25:00,
2013-01-24 09:30:00,10.7,1.7,30.50,ENE,68,4.4,6.3,63,0.00,,,0.00,WSDL version 423,2013-01-24 15:30:00,
2013-01-24 09:35:00,10.9,1.8,30.47,NNE,20,4.2,6.3,63,0.00,,,0.00,WSDL version 423,2013-01-24 15:35:00,
2013-01-24 09:40:00,11.2,2.1,30.47,North,3,3.4,6.3,63,0.00,,,0.00,WSDL version 423,2013-01-24 15:40:00,
2013-01-24 09:45:00,11.6,2.5,30.47,NNE,29,3.1,6.3,63,0.00,,,0.00,WSDL version 423,2013-01-24 15:45:00,
2013-01-24 09:50:00,11.7,2.6,30.50,NNE,17,3.4,5.8,63,0.00,,,0.00,WSDL version 423,2013-01-24 15:50:00,
2013-01-24 09:55:00,12.0,2.9,30.50,NE,45,2.2,4.9,63,0.00,,,0.00,WSDL version 423,2013-01-24 15:55:00,
2013-01-24 10:00:00,12.2,3.1,30.50,ENE,68,4.0,5.8,63,0.00,,,0.00,WSDL version 423,2013-01-24 16:00:00,
2013-01-24 10:05:00,12.5,3.3,30.50,ENE,59,4.5,5.8,63,0.00,,,0.00,WSDL version 423,2013-01-24 16:05:00,
2013-01-24 10:10:00,12.7,3.6,30.50,NE,45,3.5,5.4,63,0.00,,,0.00,WSDL version 423,2013-01-24 16:10:00,
2013-01-24 10:15:00,12.9,3.8,30.50,NNE,30,5.4,6.5,63,0.00,,,0.00,WSDL version 423,2013-01-24 16:15:00,
2013-01-24 10:20:00,12.8,3.7,30.47,NNE,16,4.4,6.5,63,0.00,,,0.00,WSDL version 423,2013-01-24 16:20:00,
2013-01-24 10:25:00,13.1,3.9,30.47,ENE,68,3.6,5.6,63,0.00,,,0.00,WSDL version 423,2013-01-24 16:25:00,
2013-01-24 10:30:00,13.6,4.4,30.47,ENE,76,3.5,5.4,63,0.00,,,0.00,WSDL version 423,2013-01-24 16:30:00,
2013-01-24 10:35:00,14.0,2.9,30.47,ENE,68,2.7,6.3,52,0.00,,,0.00,WSDL version 423,2013-01-24 16:35:00,
2013-01-24 10:40:00,14.3,1.1,30.47,NNE,28,4.8,6.5,51,0.00,,,0.00,WSDL version 423,2013-01-24 16:40:00,
2013-01-24 10:45:00,14.3,1.0,30.47,ENE,58,4.3,6.7,51,0.00,,,0.00,WSDL version 423,2013-01-24 16:45:00,
2013-01-24 10:50:00,14.5,1.2,30.47,NNE,17,4.0,6.7,51,0.00,,,0.00,WSDL version 423,2013-01-24 16:50:00,
2013-01-24 10:55:00,15.0,1.7,30.47,ENE,61,2.8,6.0,51,0.00,,,0.00,WSDL version 423,2013-01-24 16:55:00,
2013-01-24 11:00:00,15.7,2.3,30.47,ENE,58,4.0,6.0,51,0.00,,,0.00,WSDL version 423,2013-01-24 17:00:00,
2013-01-24 11:05:00,16.1,2.6,30.47,ENE,68,3.2,5.6,50,0.00,,,0.00,WSDL version 423,2013-01-24 17:05:00,
2013-01-24 11:10:00,16.6,2.9,30.47,NE,54,3.7,5.8,50,0.00,,,0.00,WSDL version 423,2013-01-24 17:10:00,
2013-01-24 11:15:00,16.8,3.0,30.47,NE,51,3.5,6.5,50,0.00,,,0.00,WSDL version 423,2013-01-24 17:15:00,
2013-01-24 11:20:00,17.1,3.3,30.47,NNE,28,4.7,6.5,50,0.00,,,0.00,WSDL version 423,2013-01-24 17:20:00,
2013-01-24 11:25:00,17.3,3.4,30.47,ENE,60,3.8,6.5,50,0.00,,,0.00,WSDL version 423,2013-01-24 17:25:00,
2013-01-24 11:30:00,17.3,3.5,30.47,ENE,59,2.5,5.6,50,0.00,,,0.00,WSDL version 423,2013-01-24 17:30:00,
2013-01-24 11:35:00,17.7,3.6,30.45,NE,36,5.2,6.5,49,0.00,,,0.00,WSDL version 423,2013-01-24 17:35:00,
2013-01-24 11:40:00,17.8,3.5,30.45,NE,54,3.0,6.5,49,0.00,,,0.00,WSDL version 423,2013-01-24 17:40:00,
2013-01-24 11:45:00,17.9,3.7,30.45,ENE,75,1.6,6.3,49,0.00,,,0.00,WSDL version 423,2013-01-24 17:45:00,
2013-01-24 11:50:00,18.3,4.0,30.47,NE,45,3.2,4.9,49,0.00,,,0.00,WSDL version 423,2013-01-24 17:50:00,
2013-01-24 11:55:00,18.5,4.2,30.47,ENE,63,2.4,4.3,49,0.00,,,0.00,WSDL version 423,2013-01-24 17:55:00,
2013-01-24 12:00:00,19.0,4.7,30.47,East,86,3.0,6.3,49,0.00,,,0.00,WSDL version 423,2013-01-24 18:00:00,
2013-01-24 12:05:00,19.2,4.8,30.45,ENE,65,3.2,6.3,49,0.00,,,0.00,WSDL version 423,2013-01-24 18:05:00,
2013-01-24 12:10:00,19.0,4.5,30.45,NE,56,3.7,6.3,48,0.00,,,0.00,WSDL version 423,2013-01-24 18:10:00,
2013-01-24 12:15:00,18.9,4.3,30.45,ENE,77,2.2,5.6,49,0.00,,,0.00,WSDL version 423,2013-01-24 18:15:00,
2013-01-24 12:20:00,19.0,4.4,30.45,ENE,62,3.6,4.3,48,0.00,,,0.00,WSDL version 423,2013-01-24 18:20:00,
2013-01-24 12:25:00,18.9,4.2,30.45,ENE,70,2.6,4.3,48,0.00,,,0.00,WSDL version 423,2013-01-24 18:25:00,
2013-01-24 12:30:00,19.3,4.5,30.45,ENE,73,2.8,5.4,48,0.00,,,0.00,WSDL version 423,2013-01-24 18:30:00,
2013-01-24 12:35:00,19.6,4.9,30.45,East,79,3.0,5.4,48,0.00,,,0.00,WSDL version 423,2013-01-24 18:35:00,
2013-01-24 12:40:00,20.0,5.2,30.45,ENE,62,1.6,4.3,48,0.00,,,0.00,WSDL version 423,2013-01-24 18:40:00,
2013-01-24 12:46:00,20.2,5.4,30.45,ENE,58,4.0,5.6,48,0.00,,,0.00,WSDL version 423,2013-01-24 18:46:00,
2013-01-24 12:51:00,20.6,5.8,30.45,SSW,206,1.9,5.6,48,0.00,,,0.00,WSDL version 423,2013-01-24 18:51:00,
2013-01-24 12:56:00,20.9,6.1,30.45,WNW,300,2.0,4.3,48,0.00,,,0.00,WSDL version 423,2013-01-24 18:56:00,
2013-01-24 13:01:00,21.2,6.3,30.45,NNE,29,1.7,5.6,48,0.00,,,0.00,WSDL version 423,2013-01-24 19:01:00,
2013-01-24 13:06:00,21.6,6.7,30.45,ENE,68,3.5,5.6,47,0.00,,,0.00,WSDL version 423,2013-01-24 19:06:00,
2013-01-24 13:11:00,21.6,6.3,30.45,ENE,59,4.3,6.3,47,0.00,,,0.00,WSDL version 423,2013-01-24 19:11:00,
2013-01-24 13:16:00,21.7,6.4,30.45,ENE,71,3.1,6.3,47,0.00,,,0.00,WSDL version 423,2013-01-24 19:16:00,
2013-01-24 13:21:00,21.9,6.6,30.42,ENE,71,3.7,7.4,47,0.00,,,0.00,WSDL version 423,2013-01-24 19:21:00,
2013-01-24 13:26:00,22.0,6.6,30.42,ESE,122,2.5,7.4,47,0.00,,,0.00,WSDL version 423,2013-01-24 19:26:00,
2013-01-24 13:31:00,22.0,6.6,30.42,NNE,30,2.7,4.3,46,0.00,,,0.00,WSDL version 423,2013-01-24 19:31:00,
2013-01-24 13:36:00,22.2,6.7,30.45,ENE,75,2.5,4.3,47,0.00,,,0.00,WSDL version 423,2013-01-24 19:36:00,
2013-01-24 13:41:00,22.1,6.3,30.45,ENE,58,3.3,4.3,46,0.00,,,0.00,WSDL version 423,2013-01-24 19:41:00,
2013-01-24 13:46:00,22.1,6.3,30.45,NNW,341,1.8,4.3,46,0.00,,,0.00,WSDL version 423,2013-01-24 19:46:00,
2013-01-24 13:51:00,22.4,6.7,30.42,NNE,29,2.2,4.0,47,0.00,,,0.00,WSDL version 423,2013-01-24 19:51:00,
2013-01-24 13:56:00,22.6,6.8,30.42,ENE,63,2.7,6.3,46,0.00,,,0.00,WSDL version 423,2013-01-24 19:56:00,
2013-01-24 14:01:00,22.6,6.8,30.42,ENE,65,4.2,10.1,45,0.00,,,0.00,WSDL version 423,2013-01-24 20:01:00,
2013-01-24 14:06:00,22.4,6.3,30.42,ENE,64,2.6,10.1,46,0.00,,,0.00,WSDL version 423,2013-01-24 20:06:00,
2013-01-24 14:11:00,22.4,6.2,30.42,ENE,68,2.7,5.8,45,0.00,,,0.00,WSDL version 423,2013-01-24 20:11:00,
2013-01-24 14:16:00,22.3,6.1,30.42,SE,135,3.7,8.5,46,0.00,,,0.00,WSDL version 423,2013-01-24 20:16:00,
2013-01-24 14:21:00,22.4,6.6,30.39,NE,56,2.7,8.5,46,0.00,,,0.00,WSDL version 423,2013-01-24 20:21:00,
2013-01-24 14:26:00,22.3,6.2,30.39,East,90,2.8,6.0,45,0.00,,,0.00,WSDL version 423,2013-01-24 20:26:00,
2013-01-24 14:31:00,22.3,6.5,30.39,ENE,59,2.9,6.0,46,0.00,,,0.00,WSDL version 423,2013-01-24 20:31:00,
2013-01-24 14:36:00,22.1,6.3,30.42,ENE,68,2.4,4.5,46,0.00,,,0.00,WSDL version 423,2013-01-24 20:36:00,
2013-01-24 14:41:00,22.0,6.2,30.42,NE,35,2.8,5.6,46,0.00,,,0.00,WSDL version 423,2013-01-24 20:41:00,
2013-01-24 14:46:00,21.9,6.2,30.42,ENE,62,3.5,5.6,46,0.00,,,0.00,WSDL version 423,2013-01-24 20:46:00,
2013-01-24 14:51:00,21.9,6.2,30.39,East,86,2.2,4.3,46,0.00,,,0.00,WSDL version 423,2013-01-24 20:51:00,
2013-01-24 14:56:00,21.9,6.5,30.39,SE,131,2.1,6.0,47,0.00,,,0.00,WSDL version 423,2013-01-24 20:56:00,
2013-01-24 15:01:00,21.9,6.6,30.39,West,278,2.2,6.0,47,0.00,,,0.00,WSDL version 423,2013-01-24 21:01:00,
2013-01-24 15:07:00,22.0,6.6,30.39,ENE,73,3.0,4.0,47,0.00,,,0.00,WSDL version 423,2013-01-24 21:07:00,
2013-01-24 15:12:00,22.0,6.6,30.39,East,90,2.2,4.0,47,0.00,,,0.00,WSDL version 423,2013-01-24 21:12:00,
2013-01-24 15:17:00,21.9,6.6,30.39,NNE,23,2.7,5.6,47,0.00,,,0.00,WSDL version 423,2013-01-24 21:17:00,
2013-01-24 15:22:00,21.9,6.6,30.39,ENE,73,2.4,5.6,47,0.00,,,0.00,WSDL version 423,2013-01-24 21:22:00,
2013-01-24 15:27:00,21.9,6.6,30.39,NE,51,2.7,5.4,47,0.00,,,0.00,WSDL version 423,2013-01-24 21:27:00,
2013-01-24 15:32:00,21.9,6.6,30.36,ENE,68,2.9,5.4,47,0.00,,,0.00,WSDL version 423,2013-01-24 21:32:00,
2013-01-24 15:37:00,21.9,6.6,30.36,East,83,3.2,4.7,47,0.00,,,0.00,WSDL version 423,2013-01-24 21:37:00,
2013-01-24 15:42:00,21.8,6.5,30.36,ENE,62,3.0,4.7,47,0.00,,,0.00,WSDL version 423,2013-01-24 21:42:00,
2013-01-24 15:47:00,21.7,6.4,30.33,NE,34,2.7,5.8,47,0.00,,,0.00,WSDL version 423,2013-01-24 21:47:00,
2013-01-24 15:52:00,21.7,6.4,30.33,ENE,64,3.5,5.8,47,0.00,,,0.00,WSDL version 423,2013-01-24 21:52:00,
2013-01-24 15:57:00,21.7,6.4,30.33,NE,56,3.0,5.4,47,0.00,,,0.00,WSDL version 423,2013-01-24 21:57:00,
2013-01-24 16:02:00,21.6,6.3,30.33,ENE,73,2.6,6.3,47,0.00,,,0.00,WSDL version 423,2013-01-24 22:02:00,
2013-01-24 16:07:00,21.6,6.3,30.33,WSW,244,2.9,7.6,47,0.00,,,0.00,WSDL version 423,2013-01-24 22:07:00,
2013-01-24 16:12:00,21.6,6.3,30.33,East,87,2.4,7.6,47,0.00,,,0.00,WSDL version 423,2013-01-24 22:12:00,
2013-01-24 16:17:00,21.6,6.3,30.33,ENE,73,3.6,5.8,47,0.00,,,0.00,WSDL version 423,2013-01-24 22:17:00,
2013-01-24 16:22:00,21.6,6.3,30.33,NE,36,2.7,5.8,47,0.00,,,0.00,WSDL version 423,2013-01-24 22:22:00,
2013-01-24 16:27:00,21.6,6.3,30.33,ENE,70,3.0,6.0,47,0.00,,,0.00,WSDL version 423,2013-01-24 22:27:00,
2013-01-24 16:32:00,21.6,6.3,30.33,East,90,2.9,6.0,47,0.00,,,0.00,WSDL version 423,2013-01-24 22:32:00,
2013-01-24 16:37:00,21.4,6.1,30.33,East,94,2.1,4.3,47,0.00,,,0.00,WSDL version 423,2013-01-24 22:37:00,
2013-01-24 16:42:00,21.4,6.2,30.33,East,95,2.4,3.6,48,0.00,,,0.00,WSDL version 423,2013-01-24 22:42:00,
2013-01-24 16:47:00,21.4,6.5,30.33,East,90,3.2,5.8,48,0.00,,,0.00,WSDL version 423,2013-01-24 22:47:00,
2013-01-24 16:52:00,21.4,6.5,30.33,ENE,76,2.4,6.0,48,0.00,,,0.00,WSDL version 423,2013-01-24 22:52:00,
2013-01-24 16:57:00,21.2,6.4,30.33,ENE,59,3.5,6.0,48,0.00,,,0.00,WSDL version 423,2013-01-24 22:57:00,
2013-01-24 17:02:00,21.2,6.3,30.33,East,93,1.9,6.0,48,0.00,,,0.00,WSDL version 423,2013-01-24 23:02:00,
2013-01-24 17:07:00,21.2,6.3,30.33,NE,54,1.3,6.0,48,0.00,,,0.00,WSDL version 423,2013-01-24 23:07:00,
2013-01-24 17:12:00,21.2,6.3,30.33,NE,45,1.4,3.4,48,0.00,,,0.00,WSDL version 423,2013-01-24 23:12:00,
2013-01-24 17:17:00,21.2,6.3,30.30,ENE,68,2.6,3.6,48,0.00,,,0.00,WSDL version 423,2013-01-24 23:17:00,
2013-01-24 17:22:00,21.2,6.3,30.30,ENE,71,0.8,3.8,48,0.00,,,0.00,WSDL version 423,2013-01-24 23:22:00,
2013-01-24 17:27:00,21.2,6.4,30.30,ENE,70,2.3,4.0,49,0.00,,,0.00,WSDL version 423,2013-01-24 23:27:00,
2013-01-24 17:32:00,21.2,6.7,30.33,ENE,68,2.1,4.0,49,0.00,,,0.00,WSDL version 423,2013-01-24 23:32:00,
2013-01-24 17:37:00,21.2,6.7,30.33,ENE,62,3.0,4.7,49,0.00,,,0.00,WSDL version 423,2013-01-24 23:37:00,
2013-01-24 17:42:00,21.2,6.7,30.33,East,93,2.1,4.7,49,0.00,,,0.00,WSDL version 423,2013-01-24 23:42:00,
2013-01-24 17:47:00,21.4,6.5,30.33,NE,35,2.0,4.0,48,0.00,,,0.00,WSDL version 423,2013-01-24 23:47:00,
2013-01-24 17:52:00,21.4,6.7,30.33,NNE,20,1.5,3.6,49,0.00,,,0.00,WSDL version 423,2013-01-24 23:52:00,
2013-01-24 17:57:00,21.4,7.0,30.33,North,4,2.7,4.0,49,0.00,,,0.00,WSDL version 423,2013-01-24 23:57:00,
2013-01-24 18:02:00,21.6,7.1,30.30,NNE,23,1.4,4.0,49,0.00,,,0.00,WSDL version 423,2013-01-25 00:02:00,
2013-01-24 18:07:00,21.6,7.1,30.30,NNE,23,2.8,6.0,49,0.00,,,0.00,WSDL version 423,2013-01-25 00:07:00,
2013-01-24 18:12:00,21.6,7.1,30.30,NNE,33,2.1,6.0,49,0.00,,,0.00,WSDL version 423,2013-01-25 00:12:00,
2013-01-24 18:17:00,21.6,7.1,30.30,South,169,1.8,5.6,49,0.00,,,0.00,WSDL version 423,2013-01-25 00:17:00,
2013-01-24 18:22:00,21.6,7.1,30.30,NE,55,2.7,5.6,49,0.00,,,0.00,WSDL version 423,2013-01-25 00:22:00,
2013-01-24 18:27:00,21.6,7.1,30.30,ENE,68,1.8,5.4,49,0.00,,,0.00,WSDL version 423,2013-01-25 00:27:00,
2013-01-24 18:32:00,21.6,7.1,30.30,West,263,1.2,4.5,49,0.00,,,0.00,WSDL version 423,2013-01-25 00:32:00,
2013-01-24 18:37:00,21.6,7.1,30.30,East,100,2.3,4.7,49,0.00,,,0.00,WSDL version 423,2013-01-25 00:37:00,
2013-01-24 18:42:00,21.6,7.1,30.30,ENE,75,2.5,4.7,49,0.00,,,0.00,WSDL version 423,2013-01-25 00:42:00,
2013-01-24 18:47:00,21.6,7.1,30.30,ENE,59,3.1,4.7,49,0.00,,,0.00,WSDL version 423,2013-01-25 00:47:00,
2013-01-24 18:52:00,21.5,7.0,30.30,NNE,32,2.7,4.7,49,0.00,,,0.00,WSDL version 423,2013-01-25 00:52:00,
2013-01-24 18:57:00,21.4,6.9,30.30,NE,51,2.9,4.0,49,0.00,,,0.00,WSDL version 423,2013-01-25 00:57:00,
2013-01-24 19:02:00,21.4,6.9,30.30,NE,48,1.6,4.3,49,0.00,,,0.00,WSDL version 423,2013-01-25 01:02:00,
2013-01-24 19:07:00,21.4,6.9,30.30,East,100,1.5,4.3,49,0.00,,,0.00,WSDL version 423,2013-01-25 01:07:00,
2013-01-24 19:12:00,21.4,6.9,30.30,ENE,75,3.0,4.0,49,0.00,,,0.00,WSDL version 423,2013-01-25 01:12:00,
2013-01-24 19:17:00,21.4,6.9,30.27,ENE,68,2.6,4.0,49,0.00,,,0.00,WSDL version 423,2013-01-25 01:17:00,
2013-01-24 19:22:00,21.4,6.9,30.27,SW,221,1.7,3.6,49,0.00,,,0.00,WSDL version 423,2013-01-25 01:22:00,
2013-01-24 19:27:00,21.4,6.9,30.27,ENE,64,2.0,3.6,49,0.00,,,0.00,WSDL version 423,2013-01-25 01:27:00,
2013-01-24 19:32:00,21.4,6.9,30.30,NE,45,1.4,3.8,49,0.00,,,0.00,WSDL version 423,2013-01-25 01:32:00,
2013-01-24 19:37:00,21.3,6.8,30.30,North,8,2.2,4.7,49,0.00,,,0.00,WSDL version 423,2013-01-25 01:37:00,
2013-01-24 19:42:00,21.2,6.7,30.30,ENE,64,2.3,4.7,49,0.00,,,0.00,WSDL version 423,2013-01-25 01:42:00,
2013-01-24 19:47:00,21.2,6.7,30.27,ENE,68,2.1,4.0,49,0.00,,,0.00,WSDL version 423,2013-01-25 01:47:00,
2013-01-24 19:52:00,21.2,6.8,30.27,ENE,73,2.1,4.0,50,0.00,,,0.00,WSDL version 423,2013-01-25 01:52:00,
2013-01-24 19:57:00,21.2,7.1,30.27,NE,51,2.1,3.8,50,0.00,,,0.00,WSDL version 423,2013-01-25 01:57:00,
2013-01-24 20:02:00,21.2,7.1,30.27,East,80,1.9,3.1,50,0.00,,,0.00,WSDL version 423,2013-01-25 02:02:00,
2013-01-24 20:07:00,21.1,7.0,30.27,NNE,29,1.9,3.8,50,0.00,,,0.00,WSDL version 423,2013-01-25 02:07:00,
2013-01-24 20:12:00,21.0,7.0,30.27,NE,45,1.3,3.8,50,0.00,,,0.00,WSDL version 423,2013-01-25 02:12:00,
2013-01-24 20:17:00,21.0,7.0,30.27,ENE,61,1.9,4.0,50,0.00,,,0.00,WSDL version 423,2013-01-25 02:17:00,
2013-01-24 20:22:00,21.0,6.9,30.27,NE,37,2.5,4.0,50,0.00,,,0.00,WSDL version 423,2013-01-25 02:22:00,
2013-01-24 20:27:00,20.8,6.8,30.27,South,180,1.2,3.4,50,0.00,,,0.00,WSDL version 423,2013-01-25 02:27:00,
2013-01-24 20:32:00,20.8,6.8,30.24,East,93,1.1,3.6,50,0.00,,,0.00,WSDL version 423,2013-01-25 02:32:00,
2013-01-24 20:37:00,20.8,6.8,30.24,NE,39,2.4,3.8,50,0.00,,,0.00,WSDL version 423,2013-01-25 02:37:00,
2013-01-24 20:42:00,20.9,7.1,30.24,NNE,17,2.6,6.3,51,0.00,,,0.00,WSDL version 423,2013-01-25 02:42:00,
2013-01-24 20:47:00,21.0,7.4,30.24,ENE,68,1.6,6.3,51,0.00,,,0.00,WSDL version 423,2013-01-25 02:47:00,
2013-01-24 20:52:00,21.1,7.4,30.24,NE,42,2.7,5.6,51,0.00,,,0.00,WSDL version 423,2013-01-25 02:52:00,
2013-01-24 20:57:00,21.2,7.1,30.24,East,96,3.6,6.0,50,0.00,,,0.00,WSDL version 423,2013-01-25 02:57:00,
2013-01-24 21:02:00,21.2,7.1,30.24,ENE,75,2.8,6.0,50,0.00,,,0.00,WSDL version 423,2013-01-25 03:02:00,
2013-01-24 21:07:00,21.2,7.1,30.24,NE,50,3.0,6.5,50,0.00,,,0.00,WSDL version 423,2013-01-25 03:07:00,
2013-01-24 21:12:00,21.2,7.1,30.24,East,83,3.1,6.5,50,0.00,,,0.00,WSDL version 423,2013-01-25 03:12:00,
2013-01-24 21:17:00,21.2,7.1,30.21,NE,48,3.1,6.3,50,0.00,,,0.00,WSDL version 423,2013-01-25 03:17:00,
2013-01-24 21:22:00,21.2,7.0,30.21,NE,45,4.1,7.4,49,0.00,,,0.00,WSDL version 423,2013-01-25 03:22:00,
2013-01-24 21:27:00,21.2,6.7,30.21,NNE,23,3.8,7.4,49,0.00,,,0.00,WSDL version 423,2013-01-25 03:27:00,
2013-01-24 21:32:00,21.2,6.8,30.24,ENE,74,2.1,5.8,49,0.00,,,0.00,WSDL version 423,2013-01-25 03:32:00,
2013-01-24 21:37:00,21.2,6.7,30.24,ENE,64,3.9,5.4,49,0.00,,,0.00,WSDL version 423,2013-01-25 03:37:00,
2013-01-24 21:42:00,21.2,6.7,30.24,NE,53,2.5,5.4,49,0.00,,,0.00,WSDL version 423,2013-01-25 03:42:00,
2013-01-24 21:47:00,21.2,6.7,30.24,NE,45,3.0,4.9,49,0.00,,,0.00,WSDL version 423,2013-01-25 03:47:00,
2013-01-24 21:52:00,21.2,6.7,30.24,ENE,68,2.2,4.9,49,0.00,,,0.00,WSDL version 423,2013-01-25 03:52:00,
2013-01-24 21:57:00,21.2,6.7,30.24,WNW,293,2.7,4.9,49,0.00,,,0.00,WSDL version 423,2013-01-25 03:57:00,
2013-01-24 22:02:00,21.2,6.7,30.24,SW,222,2.8,4.7,49,0.00,,,0.00,WSDL version 423,2013-01-25 04:02:00,
2013-01-24 22:07:00,21.2,6.7,30.24,ENE,71,1.8,4.3,49,0.00,,,0.00,WSDL version 423,2013-01-25 04:07:00,
2013-01-24 22:12:00,21.2,6.7,30.24,NE,55,2.6,4.0,49,0.00,,,0.00,WSDL version 423,2013-01-25 04:12:00,
2013-01-24 22:17:00,21.2,6.7,30.24,NE,45,1.6,4.0,49,0.00,,,0.00,WSDL version 423,2013-01-25 04:17:00,
2013-01-24 22:22:00,21.2,6.7,30.24,East,90,2.7,5.8,49,0.00,,,0.00,WSDL version 423,2013-01-25 04:22:00,
2013-01-24 22:27:00,21.2,6.7,30.24,East,83,2.3,5.8,49,0.00,,,0.00,WSDL version 423,2013-01-25 04:27:00,
2013-01-24 22:32:00,21.2,6.7,30.24,SW,221,3.2,5.8,49,0.00,,,0.00,WSDL version 423,2013-01-25 04:32:00,
2013-01-24 22:37:00,21.2,6.7,30.24,NE,49,2.5,5.8,49,0.00,,,0.00,WSDL version 423,2013-01-25 04:37:00,
2013-01-24 22:42:00,21.2,6.7,30.24,ENE,73,1.9,4.9,49,0.00,,,0.00,WSDL version 423,2013-01-25 04:42:00,
2013-01-24 22:47:00,21.2,6.7,30.21,ENE,59,2.4,5.6,49,0.00,,,0.00,WSDL version 423,2013-01-25 04:47:00,
2013-01-24 22:52:00,21.2,6.7,30.21,East,84,3.1,5.8,49,0.00,,,0.00,WSDL version 423,2013-01-25 04:52:00,
2013-01-24 22:57:00,21.2,6.7,30.21,WNW,289,2.9,5.8,49,0.00,,,0.00,WSDL version 423,2013-01-25 04:57:00,
2013-01-24 23:00:00,21.2,6.7,30.21,NNW,338,2.2,5.8,49,0.00,,,0.00,WSDL version 423,2013-01-25 05:00:00,
2013-01-24 23:03:00,21.3,6.8,30.21,ENE,62,2.3,5.6,49,0.00,,,0.00,WSDL version 423,2013-01-25 05:03:00,
2013-01-24 23:04:00,21.3,6.8,30.21,WNW,293,2.5,5.6,49,0.00,,,0.00,WSDL version 423,2013-01-25 05:04:00,
2013-01-24 23:05:00,21.4,6.9,30.21,NW,308,2.5,5.6,49,0.00,,,0.00,WSDL version 423,2013-01-25 05:05:00,
2013-01-24 23:10:00,21.4,6.9,30.21,NE,42,3.6,6.3,49,0.00,,,0.00,WSDL version 423,2013-01-25 05:10:00,
2013-01-24 23:15:00,21.4,6.9,30.21,South,174,2.2,8.1,49,0.00,,,0.00,WSDL version 423,2013-01-25 05:15:00,
2013-01-24 23:20:00,21.4,6.9,30.21,SE,141,1.8,8.1,49,0.00,,,0.00,WSDL version 423,2013-01-25 05:20:00,
2013-01-24 23:25:00,21.4,6.9,30.21,North,8,3.4,6.7,49,0.00,,,0.00,WSDL version 423,2013-01-25 05:25:00,
2013-01-24 23:30:00,21.4,6.9,30.21,NW,315,2.5,6.7,49,0.00,,,0.00,WSDL version 423,2013-01-25 05:30:00,
2013-01-24 23:35:00,21.4,6.9,30.21,SSW,209,3.5,7.8,49,0.00,,,0.00,WSDL version 423,2013-01-25 05:35:00,
2013-01-24 23:40:00,21.4,6.7,30.21,NE,34,2.9,7.8,48,0.00,,,0.00,WSDL version 423,2013-01-25 05:40:00,
2013-01-24 23:45:00,21.4,6.5,30.21,NNE,16,3.0,6.0,48,0.00,,,0.00,WSDL version 423,2013-01-25 05:45:00,
2013-01-24 23:50:00,21.4,6.6,30.18,East,79,2.8,6.9,49,0.00,,,0.00,WSDL version 423,2013-01-25 05:50:00,
2013-01-24 23:55:00,21.4,6.6,30.18,East,98,3.4,6.9,48,0.00,,,0.00,WSDL version 423,2013-01-25 05:55:00,